TimeHADT,TemperatureF,Dew PointF,Humidity,Sea Level PressureIn,VisibilityMPH,Wind Direction,Wind SpeedMPH,Gust SpeedMPH,PrecipitationIn,Events,Conditions,WindDirDegrees,DateUTC
12:01 AM,48.9,48.0,97,30.65,10.0,Calm,Calm,-,N/A,,Mostly Cloudy,0,2013-07-28 09:01:00
1:01 AM,48.9,48.0,97,30.65,10.0,North,-9999.0,-,N/A,,Overcast,0,2013-07-28 10:01:00
2:01 AM,51.1,48.9,92,30.65,10.0,North,-9999.0,-,N/A,,Overcast,0,2013-07-28 11:01:00
3:01 AM,52.0,50.0,93,30.64,10.0,North,-9999.0,-,N/A,,Overcast,0,2013-07-28 12:01:00
4:01 AM,52.0,50.0,93,30.63,10.0,Calm,Calm,-,N/A,,Overcast,0,2013-07-28 13:01:00
5:01 AM,53.1,50.0,89,30.63,10.0,Calm,Calm,-,N/A,,Overcast,0,2013-07-28 14:01:00
6:01 AM,52.0,50.0,93,30.62,10.0,Calm,Calm,-,N/A,,Overcast,0,2013-07-28 15:01:00
7:01 AM,53.1,50.0,89,30.61,10.0,South,5.8,-,N/A,,Overcast,170,2013-07-28 16:01:00
8:01 AM,53.1,50.0,89,30.61,10.0,East,5.8,-,N/A,,Overcast,100,2013-07-28 17:01:00
9:01 AM,55.9,51.1,84,30.61,10.0,North,-9999.0,-,N/A,,Overcast,0,2013-07-28 18:01:00
10:01 AM,59.0,50.0,72,30.61,10.0,North,-9999.0,-,N/A,,Overcast,0,2013-07-28 19:01:00
11:01 AM,59.0,50.0,72,30.61,10.0,North,-9999.0,-,N/A,,Overcast,0,2013-07-28 20:01:00
12:01 PM,59.0,51.1,75,30.61,4.0,North,-9999.0,-,N/A,,Haze,0,2013-07-28 21:01:00
1:01 PM,60.1,51.1,72,30.61,10.0,ESE,6.9,-,N/A,,Overcast,110,2013-07-28 22:01:00
2:01 PM,59.0,51.1,75,30.61,10.0,North,-9999.0,-,N/A,,Overcast,0,2013-07-28 23:01:00
3:01 PM,57.9,51.1,78,30.60,10.0,East,9.2,-,N/A,,Overcast,100,2013-07-29 00:01:00
4:01 PM,59.0,51.1,75,30.59,10.0,North,-9999.0,-,N/A,,Overcast,0,2013-07-29 01:01:00
5:01 PM,57.0,51.1,81,30.58,10.0,East,9.2,-,N/A,,Overcast,100,2013-07-29 02:01:00
6:01 PM,57.0,51.1,81,30.58,10.0,East,9.2,-,N/A,,Overcast,100,2013-07-29 03:01:00
7:01 PM,55.9,51.1,84,30.57,9.0,East,9.2,-,N/A,,Overcast,90,2013-07-29 04:01:00
8:01 PM,55.9,51.1,84,30.56,10.0,East,6.9,-,N/A,,Overcast,90,2013-07-29 05:01:00
9:01 PM,55.0,51.1,86,30.56,6.0,North,-9999.0,-,N/A,,Overcast,0,2013-07-29 06:01:00
10:01 PM,55.4,50.0,82,30.27,10.0,East,6.9,-,N/A,,Overcast,80,2013-07-29 07:01:00
11:01 PM,53.1,50.0,89,30.56,10.0,East,5.8,-,N/A,,Overcast,90,2013-07-29 08:01:00